Change the Weather History Date:

Wednesday, August 20, 2014

  Actual Average (KSTC) Record (KSTC)
Temperature  
Mean Temperature 70 °F 67 °F  
Max Temperature 82 °F 79 °F 97 °F (1901)
Min Temperature 60 °F 56 °F 34 °F (1950)
Degree Days  
Heating Degree Days 0 1  
Month to date heating degree days 20  
Since 1 June heating degree days 115  
Since 1 July heating degree days 37  
Cooling Degree Days 6 4  
Month to date cooling degree days 93  
Year to date cooling degree days 395  
Since 1 June cooling degree days 370  
Growing Degree Days 20 (Base 50)    
Moisture  
Dew Point 66 °F    
Average Humidity 83    
Maximum Humidity 99    
Minimum Humidity 61    
Precipitation  
Precipitation 0.00 in 0.12 in 2.36 in (1975)
Month to date precipitation 2.34  
Year to date precipitation 18.13  
Snow  
Snow 0.00 in 0.00 in 0.00 in ()
Month to date snowfall 0.0  
Since 1 June snowfall 0.0  
Since 1 July snowfall 0.0  
Snow Depth -    
Sea Level Pressure  
Sea Level Pressure 29.85 in    
Wind  
Wind Speed 3 mph (East)    
Max Wind Speed 10 mph    
Max Gust Speed -    
Visibility 7 miles    
Events Fog    
T = Trace of Precipitation, MM = Missing Value Source: NWS Daily Summary

Daily Weather History Graph

Daily Weather History Graph

Search for Another Location

Airport or City:

Trip Planner

Search our weather history database for the weather conditions in past years. The results will help you decide how hot, cold, wet, or windy it might be!

Date:

Astronomy

Aug. 20, 2014 Rise Set
Actual Time 6:23 AM CDT 8:14 PM CDT
Civil Twilight 5:51 AM CDT 8:45 PM CDT
Nautical Twilight 5:12 AM CDT 9:24 PM CDT
Astronomical Twilight 4:30 AM CDT 10:06 PM CDT
Moon 1:58 AM CDT (8/20) 5:04 PM CDT (8/20)
Length of Visible Light 14h 54m
Length of Day
13h 51m
Waning Crescent, 20% of the Moon is Illuminated
Aug 20
Waning Crescent
Aug 25
New
Sep 2
First Quarter
Sep 8
Full
Sep 15
Last Quarter

Hourly Weather History & Observations

Time (CDT) Temp. Heat Index Dew Point Humidity Pressure Visibility Wind Dir Wind Speed Gust Speed Precip Events Conditions
12:15 AM 64.4 °F - 63.7 °F 98% 29.82 in 3.0 mi Calm Calm - N/A   Clear
12:34 AM 64.6 °F - 64.2 °F 99% 29.81 in 5.0 mi Calm Calm - N/A   Clear
12:54 AM 64.0 °F - 63.5 °F 98% 29.82 in 3.0 mi Calm Calm - N/A   Clear
1:14 AM 62.4 °F - 61.7 °F 97% 29.82 in 1.2 mi Calm Calm - N/A   Mist
1:35 AM 62.2 °F - 61.7 °F 98% 29.82 in 7.0 mi Calm Calm - N/A   Clear
1:55 AM 62.6 °F - 62.1 °F 98% 29.82 in 3.0 mi Calm Calm - N/A   Clear
2:15 AM 62.6 °F - 62.1 °F 98% 29.82 in 3.0 mi Calm Calm - N/A   Clear
2:35 AM 62.1 °F - 61.5 °F 98% 29.82 in 0.5 mi Calm Calm - N/A Fog Fog
2:54 AM 61.3 °F - 61.0 °F 99% 29.82 in 0.8 mi Calm Calm - N/A   Mist
3:15 AM 61.2 °F - 60.8 °F 99% 29.82 in 0.8 mi Calm Calm - N/A   Mist
3:34 AM 61.7 °F - 61.3 °F 99% 29.82 in 1.5 mi Calm Calm - N/A   Mist
3:54 AM 62.1 °F - 61.7 °F 99% 29.83 in 0.8 mi Calm Calm - N/A   Mist
4:15 AM 61.7 °F - 61.3 °F 99% 29.83 in 1.0 mi Calm Calm - N/A   Mist
4:34 AM 61.9 °F - 61.7 °F 99% 29.83 in 0.5 mi Calm Calm - N/A Fog Fog
4:54 AM 60.4 °F - 60.1 °F 99% 29.83 in 0.8 mi Calm Calm - N/A   Mist
5:15 AM 60.1 °F - 59.7 °F 99% 29.83 in 1.5 mi Calm Calm - N/A   Mist
5:34 AM 61.2 °F - 60.8 °F 99% 29.83 in 0.5 mi Calm Calm - N/A Fog Fog
5:54 AM 60.1 °F - 59.9 °F 99% 29.83 in 1.2 mi Calm Calm - N/A   Scattered Clouds
6:14 AM 62.4 °F - 62.2 °F 99% 29.84 in 2.5 mi Calm Calm - N/A   Mostly Cloudy
6:34 AM 64.6 °F - 64.4 °F 99% 29.84 in 1.5 mi East 3.5 mph - N/A   Overcast
6:54 AM 64.8 °F - 64.4 °F 99% 29.85 in 0.2 mi ENE 4.6 mph - N/A Fog Fog
7:15 AM 64.9 °F - 64.6 °F 99% 29.86 in 0.5 mi ENE 5.8 mph - N/A Fog Fog
7:34 AM 65.3 °F - 64.9 °F 99% 29.87 in 1.0 mi Calm Calm - N/A   Overcast
7:54 AM 65.8 °F - 65.5 °F 99% 29.88 in 4.0 mi Calm Calm - N/A   Overcast
8:14 AM 66.6 °F - 66.2 °F 99% 29.89 in 7.0 mi Calm Calm - N/A   Mostly Cloudy
8:34 AM 67.1 °F - 66.6 °F 98% 29.89 in 10.0 mi Calm Calm - N/A   Mostly Cloudy
8:55 AM 67.5 °F - 67.1 °F 99% 29.89 in 10.0 mi Calm Calm - N/A   Scattered Clouds
9:14 AM 68.4 °F - 68.0 °F 99% 29.87 in 10.0 mi ENE 6.9 mph - N/A   Clear
9:34 AM 69.3 °F - 68.7 °F 98% 29.87 in 10.0 mi NE 5.8 mph - N/A   Clear
9:54 AM 72.0 °F - 68.0 °F 87% 29.87 in 10.0 mi East 5.8 mph - N/A   Clear
10:14 AM 73.6 °F - 67.8 °F 82% 29.87 in 10.0 mi ENE 4.6 mph - N/A   Clear
10:34 AM 74.5 °F - 67.3 °F 78% 29.85 in 10.0 mi ENE 8.1 mph - N/A   Clear
10:54 AM 75.4 °F - 67.6 °F 77% 29.85 in 10.0 mi ENE 10.4 mph - N/A   Clear
11:14 AM 76.3 °F - 67.8 °F 75% 29.86 in 10.0 mi East 4.6 mph - N/A   Clear
11:34 AM 77.2 °F - 67.5 °F 72% 29.86 in 10.0 mi East 6.9 mph - N/A   Clear
11:54 AM 77.7 °F - 66.9 °F 69% 29.86 in 10.0 mi East 8.1 mph - N/A   Clear
12:14 PM 77.9 °F - 67.6 °F 71% 29.86 in 10.0 mi East 5.8 mph - N/A   Clear
12:35 PM 79.5 °F - 68.0 °F 68% 29.87 in 10.0 mi ESE 6.9 mph - N/A   Scattered Clouds
12:54 PM 79.7 °F - 67.6 °F 66% 29.87 in 10.0 mi SE 6.9 mph - N/A   Scattered Clouds
1:14 PM 79.7 °F - 66.4 °F 64% 29.87 in 10.0 mi ESE 6.9 mph - N/A   Scattered Clouds
1:35 PM 80.1 °F 82.2 °F 66.6 °F 63% 29.87 in 10.0 mi SE 4.6 mph - N/A   Scattered Clouds
1:54 PM 79.5 °F - 67.3 °F 66% 29.87 in 10.0 mi SSE 5.8 mph - N/A   Mostly Cloudy
2:14 PM 80.6 °F 83.1 °F 67.3 °F 64% 29.87 in 10.0 mi South 5.8 mph - N/A   Scattered Clouds
2:34 PM 81.1 °F 83.4 °F 66.7 °F 61% 29.87 in 10.0 mi SE 6.9 mph - N/A   Clear
2:54 PM 80.8 °F 83.2 °F 67.1 °F 63% 29.87 in 10.0 mi SSE 3.5 mph - N/A   Clear
3:15 PM 80.1 °F 82.2 °F 66.4 °F 63% 29.86 in 10.0 mi Calm Calm - N/A   Clear
3:34 PM 80.6 °F 82.8 °F 66.6 °F 62% 29.86 in 10.0 mi SE 5.8 mph - N/A   Clear
3:54 PM 80.2 °F 82.6 °F 67.1 °F 64% 29.86 in 10.0 mi East 3.5 mph - N/A   Clear
4:14 PM 81.3 °F 84.0 °F 67.5 °F 63% 29.86 in 10.0 mi ESE 5.8 mph - N/A   Clear
4:35 PM 81.1 °F 83.5 °F 67.1 °F 62% 29.85 in 10.0 mi East 6.9 mph - N/A   Clear
4:54 PM 80.1 °F 82.3 °F 67.1 °F 64% 29.85 in 10.0 mi ESE 4.6 mph - N/A   Clear
5:14 PM 81.5 °F 83.9 °F 67.1 °F 61% 29.85 in 10.0 mi East 3.5 mph - N/A   Clear
5:34 PM 79.7 °F - 66.2 °F 63% 29.85 in 10.0 mi East 5.8 mph - N/A   Clear
5:54 PM 80.4 °F 82.6 °F 66.4 °F 62% 29.85 in 10.0 mi East 6.9 mph - N/A   Clear
6:14 PM 79.5 °F - 66.6 °F 64% 29.85 in 10.0 mi East 4.6 mph - N/A   Clear
6:34 PM 78.8 °F - 66.7 °F 66% 29.85 in 10.0 mi East 4.6 mph - N/A   Clear
6:54 PM 78.3 °F - 66.6 °F 67% 29.85 in 10.0 mi Calm Calm - N/A   Clear
7:15 PM 78.1 °F - 67.1 °F 69% 29.85 in 10.0 mi East 3.5 mph - N/A   Clear
7:34 PM 76.6 °F - 67.6 °F 74% 29.85 in 10.0 mi ENE 5.8 mph - N/A   Scattered Clouds
7:54 PM 75.6 °F - 68.4 °F 78% 29.85 in 10.0 mi ENE 9.2 mph - N/A   Scattered Clouds
8:15 PM 75.2 °F - 68.2 °F 79% 29.85 in 10.0 mi ENE 5.8 mph - N/A   Scattered Clouds
8:34 PM 74.5 °F - 68.0 °F 80% 29.85 in 10.0 mi ENE 9.2 mph - N/A   Scattered Clouds
8:55 PM 73.6 °F - 67.6 °F 82% 29.86 in 10.0 mi ENE 8.1 mph - N/A   Scattered Clouds
9:14 PM 73.6 °F - 68.0 °F 83% 29.87 in 10.0 mi East 10.4 mph - N/A   Mostly Cloudy
9:34 PM 73.4 °F - 67.8 °F 83% 29.87 in 10.0 mi East 9.2 mph - N/A   Scattered Clouds
9:54 PM 73.0 °F - 68.0 °F 84% 29.87 in 10.0 mi East 9.2 mph - N/A   Scattered Clouds
10:14 PM 72.7 °F - 68.0 °F 85% 29.88 in 10.0 mi East 5.8 mph - N/A   Scattered Clouds
10:34 PM 72.5 °F - 68.0 °F 86% 29.87 in 10.0 mi East 8.1 mph - N/A   Scattered Clouds
10:54 PM 72.3 °F - 67.8 °F 86% 29.87 in 10.0 mi East 9.2 mph - N/A   Scattered Clouds
11:14 PM 72.1 °F - 67.8 °F 86% 29.87 in 10.0 mi East 8.1 mph - N/A   Clear
11:34 PM 72.1 °F - 67.8 °F 86% 29.87 in 10.0 mi East 8.1 mph - N/A   Clear
11:54 PM 72.0 °F - 67.6 °F 86% 29.87 in 10.0 mi East 5.8 mph - N/A   Scattered Clouds